Weather History for Seychelles, Seychelles

Change the Weather History Date:

Thursday, October 4, 2012

  Actual Average Record
Temperature  
Mean Temperature 83 °F -  
Max Temperature 86 °F 83 °F 86 °F (2000)
Min Temperature 80 °F 75 °F 75 °F (2013)
Cooling Degree Days 18    
Growing Degree Days 33 (Base 50)    
Moisture  
Dew Point 73 °F    
Average Humidity 72    
Maximum Humidity 79    
Minimum Humidity 61    
Precipitation  
Precipitation 0.00 in 0.27 in - ()
Sea Level Pressure  
Sea Level Pressure 29.87 in    
Wind  
Wind Speed 13 mph ()    
Max Wind Speed 21 mph    
Max Gust Speed -    
Visibility 7.1 miles    
Events      
Averages and records for this station are not official NWS values.
T = Trace of Precipitation, MM = Missing Value Source: Averaged Metar Reports

Daily Weather History Graph

Daily Weather History Graph

Search for Another Location

Airport:

Trip Planner

Search our weather history database for the weather conditions in past years. The results will help you decide how hot, cold, wet, or windy it might be!

Date:

Astronomy

Oct. 04, 2012 Rise Set
Actual Time 6:01 AM SCT 6:11 PM SCT
Civil Twilight 5:41 AM SCT 6:32 PM SCT
Nautical Twilight 5:16 AM SCT 6:56 PM SCT
Astronomical Twilight 4:52 AM SCT 7:20 PM SCT
Moon 9:33 PM SCT (10/4) 8:55 AM SCT (10/4)
Length of Visible Light 12h 51m
Length of Day
12h 09m
Waning Gibbous, 84% of the Moon is Illuminated
Oct 4
Waning Gibbous
Oct 8
Last Quarter
Oct 15
New
Oct 22
First Quarter
Oct 29
Full

Hourly Weather History & Observations

Time (SCT) Temp. Heat Index Dew Point Humidity Pressure Visibility Wind Dir Wind Speed Gust Speed Precip Events Conditions
1:00 AM 80.6 °F 85.4 °F 73.4 °F 79% 29.89 in 6.2 mi SSE 13.8 mph - N/A   Scattered Clouds
2:00 AM 80.6 °F 85.4 °F 73.4 °F 79% 29.89 in 6.2 mi SSE 13.8 mph - N/A   Scattered Clouds
3:00 AM 80.6 °F 84.6 °F 71.6 °F 74% 29.86 in 6.2 mi SSE 16.1 mph - N/A   Scattered Clouds
4:00 AM 80 °F - 73 °F 73% 29.88 in 12 mi SSE 18.4 mph - -   Mostly Cloudy
4:00 AM 80.6 °F 85.4 °F 73.4 °F 79% 29.86 in 6.2 mi SSE 18.4 mph - N/A   Mostly Cloudy
5:00 AM 80.6 °F 85.4 °F 73.4 °F 79% 29.86 in 6.2 mi SSE 13.8 mph - N/A   Scattered Clouds
6:00 AM 80.6 °F 84.6 °F 71.6 °F 74% 29.89 in 6.2 mi SSE 11.5 mph - N/A   Mostly Cloudy
7:00 AM 80.6 °F 85.4 °F 73.4 °F 79% 29.89 in 6.2 mi South 11.5 mph - N/A   Scattered Clouds
8:00 AM 82.4 °F 88.2 °F 73.4 °F 74% 29.92 in 6.2 mi South 11.5 mph - N/A   Scattered Clouds
9:00 AM 84.2 °F 90.9 °F 73.4 °F 70% - 6.2 mi SE 11.5 mph - N/A   Scattered Clouds
10:00 AM 85 °F - 74 °F 61% 29.92 in 12 mi SSE 11.5 mph - -  
10:00 AM 84.2 °F 90.9 °F 73.4 °F 70% 29.92 in 6.2 mi SSE 11.5 mph - N/A   Scattered Clouds
11:00 AM 86.0 °F 93.4 °F 73.4 °F 66% 29.89 in 6.2 mi ESE 16.1 mph - N/A   Scattered Clouds
12:00 PM 84.2 °F 89.6 °F 71.6 °F 66% 29.89 in 6.2 mi SE 20.7 mph - N/A   Partly Cloudy
1:00 PM 84.2 °F 90.9 °F 73.4 °F 70% 29.86 in 6.2 mi ESE 16.1 mph - N/A   Scattered Clouds
2:00 PM 86.0 °F 93.4 °F 73.4 °F 66% 29.83 in 6.2 mi SE 16.1 mph - N/A   Partly Cloudy
3:00 PM 84.2 °F 89.6 °F 71.6 °F 66% 29.83 in 6.2 mi SE 19.6 mph - N/A   Scattered Clouds
4:00 PM 83 °F - 72 °F 62% 29.84 in 12 mi SE 17.3 mph - -   Scattered Clouds
4:00 PM 84.2 °F 89.6 °F 71.6 °F 66% 29.83 in 6.2 mi SE 17.3 mph - N/A   Partly Cloudy
5:00 PM 82.4 °F 87.2 °F 71.6 °F 70% 29.83 in 6.2 mi SSE 11.5 mph - N/A   Scattered Clouds
6:00 PM 82.4 °F 87.2 °F 71.6 °F 70% 29.86 in 6.2 mi SE 11.5 mph - N/A   Scattered Clouds
7:00 PM 80.6 °F 85.4 °F 73.4 °F 79% 29.89 in 6.2 mi SE 11.5 mph - N/A   Mostly Cloudy
8:00 PM 80.6 °F 83.9 °F 69.8 °F 70% 29.89 in 6.2 mi SSE 17.3 mph - N/A   Mostly Cloudy
9:00 PM 80.6 °F 84.6 °F 71.6 °F 74% 29.89 in 6.2 mi SSW 18.4 mph - N/A   Mostly Cloudy
10:00 PM - - 80 °F %  in 12 mi South 11.5 mph - -  
10:00 PM 80.6 °F 84.6 °F 71.6 °F 74% 29.89 in 6.2 mi South 11.5 mph - N/A   Partly Cloudy
11:00 PM 80.6 °F 83.9 °F 69.8 °F 70% 29.86 in 6.2 mi South 17.3 mph - N/A   Partly Cloudy